When you browse on this site, cookies collect data to enhance your experience and personalize the content and advertising you see.
Visit our Privacy Policy to learn more. By continuing to use the site, you agree to this use of cookies and data.
  • In Switzerland
  • List of Countries
  • For 7 days
  • Water Temperature
  • Weather Map
  • Weather Widgets
  • user-avatar
    Login

    Hourly Weather Prutz

    Today, 20 February, Thursday

    Time Temperature Precipitation Wind Pressure Humidity
    00:00 -10°C° 0 mm 2 mps 633 mmHg 80%
    01:00 -10°C° 0 mm 2 mps 633 mmHg 77%
    02:00 -10°C° 0 mm 2 mps 633 mmHg 73%
    03:00 -9°C° 0 mm 2 mps 633 mmHg 70%
    04:00 -9°C° 0 mm 2 mps 633 mmHg 66%
    05:00 -8°C° 0 mm 2 mps 633 mmHg 65%
    06:00 -7°C° 0 mm 2 mps 633 mmHg 64%
    07:00 -4°C° 0 mm 1 mps 634 mmHg 62%
    08:00 -2°C° 0 mm 1 mps 634 mmHg 64%
    09:00 -1°C° 0 mm 1 mps 635 mmHg 65%
    10:00 +1°C° 0 mm 1 mps 635 mmHg 66%
    11:00 +2°C° 0 mm 1 mps 635 mmHg 70%
    12:00 +3°C° 0 mm 1 mps 635 mmHg 74%
    13:00 +4°C° 0 mm 1 mps 635 mmHg 78%
    14:00 +4°C° 0 mm 1 mps 634 mmHg 79%
    15:00 +4°C° 0 mm 1 mps 634 mmHg 79%
    16:00 +4°C° 0 mm 1 mps 634 mmHg 80%
    17:00 +3°C° 0 mm 1 mps 633 mmHg 75%
    18:00 -1°C° 0 mm 2 mps 633 mmHg 70%
    19:00 -2°C° 0 mm 2 mps 633 mmHg 64%
    20:00 -3°C° 0 mm 2 mps 633 mmHg 60%
    21:00 -3°C° 0 mm 2 mps 633 mmHg 56%
    22:00 -1°C° 0 mm 1 mps 633 mmHg 52%
    23:00 -4°C° 0 mm 2 mps 633 mmHg 58%

    Tomorrow, 21 February, Friday

    Time Temperature Precipitation Wind Pressure Humidity
    00:00 -4°C° 0 mm 2 mps 633 mmHg 64%
    01:00 -5°C° 0 mm 2 mps 633 mmHg 70%
    02:00 -5°C° 0.2 mm 2 mps 633 mmHg 71%
    03:00 -5°C° 0.2 mm 2 mps 633 mmHg 72%
    04:00 -4°C° 0.2 mm 2 mps 633 mmHg 73%
    05:00 -4°C° 0.4 mm 2 mps 634 mmHg 78%
    06:00 -4°C° 0.4 mm 2 mps 634 mmHg 84%
    07:00 -4°C° 0.4 mm 2 mps 635 mmHg 89%
    14:00 -1°C° 0 mm 2 mps 637 mmHg 88%
    15:00 -1°C° 0 mm 2 mps 637 mmHg 83%
    16:00 +1°C° 0 mm 1 mps 637 mmHg 82%
    17:00 0°C° 0 mm 1 mps 637 mmHg 81%
    18:00 -2°C° 0 mm 1 mps 637 mmHg 79%
    19:00 -4°C° 0 mm 1 mps 636 mmHg 77%
    20:00 -3°C° 0 mm 1 mps 637 mmHg 69%
    21:00 -3°C° 0 mm 1 mps 637 mmHg 61%
    22:00 -2°C° 0 mm 1 mps 637 mmHg 53%
    23:00 -2°C° 0 mm 1 mps 638 mmHg 51%

    Day after tomorrow, 22 February, Saturday

    Time Temperature Precipitation Wind Pressure Humidity
    00:00 -1°C° 0 mm 1 mps 638 mmHg 49%
    01:00 -1°C° 0 mm 1 mps 638 mmHg 47%
    02:00 -1°C° 0 mm 1 mps 638 mmHg 46%
    03:00 -1°C° 0 mm 1 mps 638 mmHg 44%
    04:00 -3°C° 0 mm 2 mps 637 mmHg 43%
    05:00 -3°C° 0 mm 2 mps 638 mmHg 43%
    06:00 -2°C° 0 mm 2 mps 638 mmHg 44%
    07:00 -2°C° 0 mm 2 mps 638 mmHg 44%
    08:00 +2°C° 0 mm 1 mps 639 mmHg 54%
    09:00 +4°C° 0 mm 1 mps 639 mmHg 64%
    10:00 +6°C° 0 mm 1 mps 640 mmHg 73%
    11:00 +6°C° 0 mm 1 mps 640 mmHg 78%
    12:00 +7°C° 0 mm 1 mps 640 mmHg 83%
    13:00 +7°C° 0 mm 1 mps 640 mmHg 87%
    14:00 +7°C° 0 mm 1 mps 640 mmHg 84%
    15:00 +7°C° 0 mm 1 mps 639 mmHg 80%
    16:00 +7°C° 0 mm 1 mps 639 mmHg 77%
    17:00 +5°C° 0 mm 2 mps 639 mmHg 68%
    18:00 +4°C° 0 mm 2 mps 639 mmHg 59%
    19:00 +2°C° 0 mm 2 mps 638 mmHg 50%
    20:00 +2°C° 0 mm 2 mps 639 mmHg 49%
    21:00 +2°C° 0 mm 2 mps 639 mmHg 47%
    22:00 +2°C° 0 mm 2 mps 639 mmHg 46%
    23:00 +2°C° 0 mm 2 mps 639 mmHg 46%

    23 February, Sunday

    Time Temperature Precipitation Wind Pressure Humidity
    00:00 +2°C° 0 mm 2 mps 639 mmHg 46%
    01:00 +2°C° 0 mm 2 mps 639 mmHg 46%
    02:00 +2°C° 0 mm 2 mps 638 mmHg 47%
    03:00 +2°C° 0 mm 2 mps 638 mmHg 48%
    04:00 +2°C° 0 mm 2 mps 638 mmHg 49%
    05:00 +2°C° 0 mm 2 mps 638 mmHg 50%
    06:00 +2°C° 0 mm 2 mps 638 mmHg 52%
    07:00 +2°C° 0 mm 2 mps 637 mmHg 53%
    08:00 +3°C° 0 mm 2 mps 638 mmHg 61%
    09:00 +4°C° 0 mm 2 mps 638 mmHg 68%
    10:00 +6°C° 0 mm 2 mps 638 mmHg 76%
    11:00 +6°C° 0 mm 2 mps 638 mmHg 79%
    12:00 +7°C° 0 mm 2 mps 638 mmHg 83%
    13:00 +7°C° 0 mm 2 mps 637 mmHg 87%
    14:00 +7°C° 0 mm 2 mps 637 mmHg 85%
    15:00 +7°C° 0 mm 2 mps 636 mmHg 83%
    16:00 +6°C° 0 mm 2 mps 635 mmHg 81%
    17:00 +6°C° 0 mm 2 mps 635 mmHg 77%
    18:00 +5°C° 0 mm 2 mps 635 mmHg 73%
    19:00 +4°C° 0 mm 2 mps 635 mmHg 70%
    20:00 +2°C° 0.4 mm 3 mps 635 mmHg 77%
    21:00 +2°C° 0.4 mm 3 mps 635 mmHg 83%
    22:00 +1°C° 0.4 mm 3 mps 635 mmHg 90%
    23:00 +1°C° 1.1 mm 3 mps 635 mmHg 93%

    24 February, Monday

    Time Temperature Precipitation Wind Pressure Humidity
    00:00 +1°C° 1.1 mm 3 mps 635 mmHg 95%
    01:00 +1°C° 1.1 mm 3 mps 635 mmHg 97%
    02:00 +1°C° 1.3 mm 3 mps 635 mmHg 97%
    03:00 +1°C° 1.3 mm 3 mps 636 mmHg 97%
    04:00 +2°C° 1.3 mm 2 mps 636 mmHg 98%
    05:00 +1°C° 1.1 mm 3 mps 636 mmHg 98%
    06:00 +1°C° 1.1 mm 3 mps 637 mmHg 98%
    07:00 +1°C° 1.1 mm 3 mps 637 mmHg 98%
    08:00 +2°C° 0.2 mm 2 mps 638 mmHg 97%
    09:00 +2°C° 0.2 mm 2 mps 638 mmHg 97%
    10:00 +2°C° 0.2 mm 2 mps 638 mmHg 96%
    11:00 +2°C° 0 mm 2 mps 638 mmHg 95%
    12:00 +4°C° 0 mm 1 mps 638 mmHg 95%
    13:00 +4°C° 0 mm 1 mps 638 mmHg 94%
    14:00 +4°C° 0 mm 1 mps 638 mmHg 91%
    15:00 +5°C° 0 mm 1 mps 638 mmHg 88%
    16:00 +5°C° 0 mm 1 mps 637 mmHg 86%
    17:00 +4°C° 0 mm 1 mps 637 mmHg 76%
    18:00 +3°C° 0 mm 1 mps 637 mmHg 67%
    19:00 +1°C° 0 mm 2 mps 636 mmHg 57%
    20:00 +1°C° 0 mm 2 mps 636 mmHg 53%
    21:00 +1°C° 0 mm 2 mps 636 mmHg 49%
    22:00 +1°C° 0 mm 2 mps 636 mmHg 46%
    23:00 +1°C° 0 mm 2 mps 636 mmHg 46%

    25 February, Tuesday

    Time Temperature Precipitation Wind Pressure Humidity
    00:00 +1°C° 0 mm 2 mps 635 mmHg 47%
    01:00 +2°C° 0 mm 2 mps 635 mmHg 48%
    02:00 +2°C° 0 mm 2 mps 635 mmHg 49%
    03:00 +2°C° 0 mm 2 mps 634 mmHg 50%
    04:00 +2°C° 0 mm 2 mps 634 mmHg 51%
    05:00 +1°C° 0 mm 2 mps 634 mmHg 52%
    06:00 +1°C° 0 mm 2 mps 633 mmHg 52%
    07:00 +1°C° 0 mm 2 mps 633 mmHg 53%
    08:00 +2°C° 0 mm 2 mps 633 mmHg 61%
    09:00 +5°C° 0 mm 1 mps 634 mmHg 69%
    10:00 +6°C° 0 mm 1 mps 634 mmHg 78%
    11:00 +7°C° 0 mm 1 mps 633 mmHg 80%
    12:00 +7°C° 0 mm 1 mps 633 mmHg 82%
    13:00 +7°C° 0 mm 1 mps 632 mmHg 84%
    14:00 +7°C° 0 mm 1 mps 632 mmHg 85%
    15:00 +7°C° 0 mm 1 mps 631 mmHg 87%
    16:00 +7°C° 0 mm 1 mps 631 mmHg 88%
    17:00 +5°C° 0 mm 1 mps 630 mmHg 88%
    18:00 +3°C° 0 mm 1 mps 630 mmHg 88%
    19:00 +2°C° 0 mm 1 mps 629 mmHg 88%
    20:00 +2°C° 0 mm 1 mps 629 mmHg 88%
    21:00 +2°C° 0 mm 1 mps 629 mmHg 88%
    22:00 +2°C° 0 mm 1 mps 629 mmHg 88%
    23:00 +2°C° 0.2 mm 1 mps 629 mmHg 90%
    Show more